[[{"header":{"parameterUnit":"m.s-1","parameterCategory":1,"la1":30.2991,"la2":30.254,"lo1":-89.0895,"lo2":-89.0444,"dy":0.0017,"dx":0.0017,"nx":28,"ny":28,"refTime":"2023-09-05T21:00:00:Z","depth":0,"parameterNumber":2,"parameterNumberName":"U-component_of_WINDS"},"data":[0,0,0,0,0,0,0,0,0,0,0,0,0,0,0,0,0,0,0,0,0,0,0,0,0,0,0,0,0,0,0,0,0,0,0,0,0,0,0,0,0,0,0,0,0,0,0,0,0,0,0,0,0,0,0,0,0,0,2.655,2.6549,0,2.6511,2.651,2.651,2.6444,2.6443,2.6441,2.644,2.64,2.64,2.64,0,0,0,0,0,0,0,0,0,0,0,0,0,2.6567,2.6567,2.655,2.6549,2.6549,2.6511,2.651,2.651,2.6444,2.6442,2.6441,2.644,2.64,2.64,2.64,0,0,0,0,0,0,0,0,0,0,0,0,0,2.6547,2.6567,2.655,2.6511,2.6508,2.6511,2.651,2.6509,2.6444,2.6442,2.6441,2.6439,2.64,2.64,2.64,2.6438,0,0,2.6401,2.6401,0,0,0,0,0,0,0,0,2.6548,2.6546,2.6518,2.6514,2.651,2.648,2.6501,2.6485,2.6445,2.6468,2.644,2.6438,2.6428,2.6426,2.6423,2.6436,2.6434,2.6401,2.6401,2.6401,2.6401,0,0,0,0,0,0,0,2.6549,2.6547,2.6534,2.6517,2.6512,2.6496,2.6491,2.6498,2.6459,2.6466,2.6461,2.6458,2.6426,2.6423,2.6421,2.6434,2.6401,2.6401,2.6401,2.6401,2.6473,2.6474,0,0,0,0,0,0,2.6556,2.6549,2.6535,2.6533,2.6525,2.6497,2.6492,2.6492,2.6459,2.6452,2.6459,2.6455,2.6423,2.6421,2.642,2.6459,2.6401,2.6401,2.6401,2.6471,2.6473,2.6475,0,0,0,0,0,0,2.6557,2.6556,2.6537,2.654,2.6536,2.6499,2.6499,2.6492,2.6488,2.6454,2.6446,2.6463,2.6422,2.6419,2.6433,2.6457,2.6401,2.6401,2.6469,2.6472,2.6474,2.6539,0,0,0,0,0,0,2.6558,2.6556,2.6571,2.654,2.6536,2.6552,2.6501,2.6492,2.6489,2.6483,2.6455,2.6449,2.642,2.6433,2.6433,2.6456,2.6401,2.6466,2.647,2.6473,2.6535,2.6544,2.6552,0,0,0,0,0,2.6559,2.6591,2.6572,2.657,2.6553,2.6553,2.6551,2.6517,2.6491,2.6504,2.6482,2.645,2.6455,2.6435,2.6435,2.6458,2.6465,2.6469,2.6473,2.6531,2.6542,2.6551,0,0,0,0,0,0,2.6625,2.6587,2.6564,2.6588,2.6574,2.6542,2.6558,2.653,2.6523,2.6518,2.6476,2.647,2.6489,2.6475,2.6454,2.6491,2.6455,2.6459,2.6499,2.6509,2.6517,2.6519,2.6401,0,0,0,0,0,2.6643,2.6647,2.6612,2.6637,2.6631,2.6596,2.6595,2.657,2.6554,2.6548,2.6526,2.6512,2.6509,2.6509,2.6505,2.6533,2.6525,2.6548,2.6557,2.6564,2.6567,2.6578,2.6587,2.6489,2.6489,2.6489,0,0,2.6679,2.6658,2.6663,2.6649,2.6636,2.6639,2.6591,2.6598,2.66,2.6549,2.6559,2.6543,2.6524,2.6544,2.6552,2.6533,2.6593,2.6569,2.6575,2.6574,2.6583,2.6593,2.6601,2.6491,2.6491,2.649,0,0,2.6746,2.6732,2.6749,2.6736,2.6716,2.6692,2.6697,2.6668,2.6655,2.6665,2.6626,2.6628,2.6626,2.6613,2.6606,2.6667,2.6637,2.6668,2.6711,2.6722,2.673,2.6736,2.6755,2.6763,2.6672,2.6672,2.6672,0,2.6793,2.6798,2.6762,2.677,2.6764,2.6718,2.6734,2.6723,2.6703,2.67,2.6679,2.6674,2.6658,2.6673,2.6688,2.6685,2.6687,2.6669,2.6732,2.6738,2.6743,2.6761,2.6769,2.6675,2.6675,2.6675,2.6674,0,2.6855,2.6859,2.6875,2.6856,2.6852,2.6865,2.683,2.6831,2.6806,2.6784,2.6794,2.6774,2.6764,2.6766,2.6743,2.6777,2.6766,2.6739,2.6701,2.6757,2.6773,2.6779,2.6681,2.6679,2.6678,2.6677,0,0,2.6962,2.6922,2.6929,2.6918,2.6892,2.6894,2.6904,2.6894,2.6894,2.6882,2.6887,2.6886,2.6861,2.6853,2.6828,2.6838,2.6884,2.6809,2.6808,2.6822,2.6918,2.6936,2.6945,2.6865,2.6866,2.6867,2.6919,0,2.7022,2.7036,2.7003,2.7025,2.7027,2.6982,2.6991,2.6975,2.6955,2.6953,2.6931,2.693,2.6898,2.6892,2.6901,2.6877,2.6903,2.6873,2.6868,2.6868,2.6872,2.6954,2.6974,2.7023,2.6925,2.6926,2.6927,0,2.7093,2.7083,2.7105,2.7076,2.7075,2.7083,2.707,2.7069,2.705,2.7035,2.7026,2.6996,2.7002,2.6968,2.6975,2.6956,2.6952,2.694,2.6941,2.6937,2.6899,2.695,2.7039,2.7045,2.6937,2.6936,2.6935,0,2.7165,2.7158,2.7169,2.7162,2.7129,2.7135,2.7122,2.7101,2.7096,2.7085,2.7081,2.7072,2.7066,2.7058,2.7026,2.7005,2.7036,2.7,2.7022,2.7023,2.7029,2.7028,2.7116,2.7031,2.7031,2.7031,2.703,0,2.7234,2.7248,2.7201,2.7208,2.7222,2.7185,2.72,2.7182,2.7163,2.7165,2.7127,2.7129,2.7088,2.7085,2.706,2.7068,2.7067,2.7053,2.7046,2.7055,2.7056,2.705,2.7045,2.7033,2.7032,2.7032,2.7031,0,2.7316,2.7286,2.7294,2.7262,2.7254,2.7266,2.7238,2.7242,2.722,2.7222,2.7221,2.7185,2.718,2.7148,2.7136,2.7118,2.7135,2.7122,2.7141,2.7136,2.7158,2.7156,2.7243,2.7251,2.7164,2.7165,2.7166,0,2.736,2.737,2.7339,2.7337,2.7325,2.7323,2.7318,2.7281,2.7277,2.7255,2.7262,2.7254,2.7245,2.7238,2.7211,2.7201,2.7186,2.7217,2.7184,2.7192,2.7183,2.7182,2.7181,2.7223,2.7225,2.7226,2.7226,0,2.7441,2.7425,2.7419,2.7408,2.7402,2.7391,2.7378,2.7379,2.7338,2.7336,2.7329,2.7323,2.7309,2.7301,2.7286,2.7271,2.7241,2.7237,2.7241,2.7249,2.7259,2.7251,2.7157,2.7235,2.7234,2.7233,2.7233,2.7233,2.7504,2.751,2.7488,2.7482,2.7468,2.7456,2.7458,2.7435,2.743,2.7416,2.7395,2.7391,2.737,2.7346,2.7334,2.733,2.7313,2.732,2.7321,2.7322,2.7326,2.7262,2.7327,2.7327,2.7327,2.7327,2.7326,0,2.758,2.7564,2.7559,2.7541,2.7536,2.7509,2.7493,2.749,2.7487,2.7471,2.7462,2.7454,2.7446,2.7418,2.7405,2.7407,2.7393,2.7405,2.7403,2.74,2.7343,2.734,2.7417,2.7417,2.7417,2.7417,2.7417,2.7417,2.7619,2.7627,2.7608,2.7608,2.7591,2.7587,2.7579,2.7568,2.7554,2.7546,2.7539,2.7521,2.7499,2.7485,2.7475,2.7467,2.7463,2.7479,2.7466,2.7413,2.7404,2.7396,2.7392,2.7479,2.7479,2.7522,2.7523,2.7523]},{"header":{"parameterUnit":"m.s-1","parameterCategory":1,"la1":30.2991,"la2":30.254,"lo1":-89.0895,"lo2":-89.0444,"dy":0.0017,"dx":0.0017,"nx":28,"ny":28,"refTime":"2023-09-05T21:00:00:Z","depth":0,"parameterNumber":3,"parameterNumberName":"V-component_of_WINDS"},"data":[0,0,0,0,0,0,0,0,0,0,0,0,0,0,0,0,0,0,0,0,0,0,0,0,0,0,0,0,0,0,0,0,0,0,0,0,0,0,0,0,0,0,0,0,0,0,0,0,0,0,0,0,0,0,0,0,0,0,2.2235,2.2236,0,2.2366,2.2368,2.2369,2.239,2.2388,2.2387,2.2386,2.2518,2.2522,2.2527,0,0,0,0,0,0,0,0,0,0,0,0,0,2.1997,2.2001,2.2235,2.2236,2.2238,2.2366,2.2368,2.237,2.239,2.2388,2.2387,2.2386,2.2516,2.2522,2.2527,0,0,0,0,0,0,0,0,0,0,0,0,0,2.2111,2.2002,2.2234,2.2263,2.2267,2.2366,2.2368,2.237,2.239,2.2388,2.2387,2.2385,2.2515,2.2521,2.2528,2.2606,0,0,2.2549,2.2552,0,0,0,0,0,0,0,0,2.2105,2.212,2.2257,2.2262,2.2266,2.236,2.2332,2.2449,2.239,2.2343,2.2386,2.2384,2.2467,2.2477,2.2506,2.2612,2.2618,2.255,2.2554,2.2557,2.2559,0,0,0,0,0,0,0,2.2097,2.2114,2.2287,2.2259,2.2265,2.2269,2.2283,2.2355,2.2413,2.2347,2.2349,2.2365,2.2469,2.2499,2.2509,2.262,2.255,2.2556,2.256,2.2563,2.2794,2.2796,0,0,0,0,0,0,2.2084,2.2108,2.2282,2.2291,2.218,2.2274,2.229,2.2331,2.2412,2.2423,2.2366,2.2365,2.2488,2.2501,2.2514,2.2609,2.2557,2.2563,2.2567,2.2792,2.2794,2.2797,0,0,0,0,0,0,2.2079,2.2099,2.2277,2.22,2.2223,2.228,2.2326,2.2335,2.2366,2.2427,2.2437,2.2387,2.2487,2.2504,2.2583,2.2613,2.2567,2.2573,2.279,2.2793,2.2796,2.28,0,0,0,0,0,0,2.2072,2.2097,2.2129,2.22,2.2227,2.2345,2.2328,2.2339,2.2378,2.2378,2.2449,2.2459,2.2487,2.2572,2.2589,2.2622,2.2578,2.2787,2.2791,2.2795,2.2797,2.2803,2.2807,0,0,0,0,0,2.2063,2.2124,2.213,2.2151,2.2267,2.2347,2.2362,2.2394,2.238,2.2411,2.245,2.2456,2.2607,2.258,2.26,2.2635,2.2785,2.279,2.2794,2.2795,2.2801,2.2807,0,0,0,0,0,0,2.2054,2.2134,2.2142,2.2228,2.228,2.235,2.239,2.2401,2.2458,2.2455,2.2492,2.2508,2.2584,2.2618,2.2585,2.2713,2.2695,2.2704,2.2689,2.2696,2.27,2.269,2.2584,0,0,0,0,0,2.2062,2.2121,2.2188,2.2257,2.2283,2.2332,2.2368,2.2389,2.2444,2.2466,2.2511,2.2564,2.2623,2.2661,2.2719,2.2802,2.2817,2.2836,2.2841,2.2845,2.2851,2.2896,2.2905,2.2811,2.2811,2.2811,0,0,2.2079,2.213,2.2165,2.2257,2.23,2.2359,2.2351,2.2414,2.2458,2.2476,2.2552,2.2587,2.2648,2.2729,2.2766,2.2759,2.288,2.2851,2.2853,2.2858,2.2901,2.291,2.2918,2.2814,2.2814,2.2813,0,0,2.214,2.2186,2.2248,2.2291,2.2357,2.2389,2.2403,2.2472,2.2495,2.2573,2.2587,2.2639,2.2741,2.2784,2.2819,2.2894,2.2901,2.2912,2.2938,2.2981,2.2988,2.2995,2.302,2.3029,2.2919,2.2919,2.2919,0,2.2153,2.2244,2.2278,2.2341,2.238,2.2399,2.2461,2.2502,2.2582,2.2608,2.2599,2.2726,2.2769,2.2858,2.2877,2.2905,2.2922,2.2904,2.2985,2.2992,2.2998,2.3023,2.3032,2.292,2.2919,2.2919,2.2919,0,2.2255,2.2317,2.2359,2.2438,2.2481,2.2543,2.2586,2.2626,2.2642,2.2674,2.2752,2.2804,2.2872,2.2895,2.2912,2.2987,2.298,2.2977,2.2959,2.3007,2.3031,2.3041,2.2921,2.292,2.292,2.292,0,0,2.2314,2.241,2.2424,2.2459,2.2533,2.2581,2.2643,2.271,2.2743,2.2798,2.285,2.2935,2.2932,2.2972,2.2993,2.3031,2.3085,2.3023,2.3025,2.3032,2.3169,2.317,2.3181,2.3091,2.3093,2.3095,2.3164,0,2.2382,2.2495,2.2527,2.2621,2.2678,2.2697,2.2751,2.2801,2.2832,2.2884,2.2919,2.2978,2.2971,2.2995,2.3033,2.3071,2.3113,2.3066,2.3138,2.314,2.3121,2.3193,2.3195,2.3258,2.3173,2.3175,2.3176,0,2.2477,2.2534,2.2634,2.2699,2.2724,2.2772,2.2835,2.2885,2.2942,2.2962,2.3005,2.3023,2.3087,2.3066,2.3153,2.3121,2.3152,2.3174,2.3177,2.3184,2.316,2.3201,2.3279,2.3287,2.3191,2.319,2.3189,0,2.2508,2.261,2.2682,2.2712,2.279,2.2822,2.2856,2.2911,2.2949,2.3004,2.3028,2.309,2.3123,2.317,2.3203,2.3185,2.3286,2.3269,2.3303,2.3302,2.3323,2.3321,2.3406,2.3345,2.3345,2.3345,2.3345,0,2.258,2.264,2.2697,2.2741,2.2808,2.2844,2.2909,2.2944,2.2992,2.3042,2.3062,2.3109,2.315,2.3202,2.3228,2.3295,2.3311,2.3327,2.3333,2.3325,2.3323,2.3345,2.3341,2.3347,2.3347,2.3346,2.3346,0,2.2626,2.2667,2.2746,2.2814,2.2832,2.2878,2.2935,2.2978,2.301,2.3073,2.309,2.314,2.3201,2.3239,2.3317,2.3335,2.3408,2.3413,2.3389,2.3392,2.3424,2.3419,2.3524,2.3539,2.347,2.3471,2.3471,0,2.2669,2.2715,2.2787,2.2823,2.2857,2.2914,2.2953,2.2989,2.3029,2.3096,2.313,2.3193,2.3245,2.3343,2.3385,2.3444,2.345,2.3483,2.3459,2.3448,2.3449,2.3445,2.3449,2.3486,2.3487,2.3487,2.3488,0,2.274,2.2757,2.2813,2.2876,2.2921,2.2972,2.3023,2.305,2.3095,2.3138,2.3202,2.3242,2.3322,2.3383,2.3446,2.3479,2.349,2.3495,2.3506,2.3497,2.348,2.3488,2.3399,2.3492,2.3492,2.3491,2.3491,2.3491,2.2785,2.2826,2.2883,2.2944,2.2986,2.3032,2.3076,2.3113,2.3167,2.3235,2.3253,2.3319,2.3373,2.3459,2.3493,2.3544,2.3539,2.3555,2.3559,2.3562,2.3562,2.3473,2.3556,2.3556,2.3556,2.3556,2.3556,0,2.2855,2.2893,2.2949,2.3019,2.3066,2.3074,2.3129,2.3168,2.3226,2.3276,2.3327,2.3399,2.3458,2.3505,2.3566,2.3598,2.3604,2.3612,2.361,2.3617,2.3564,2.3548,2.3606,2.3606,2.3606,2.3606,2.3606,2.3606,2.2898,2.2968,2.2992,2.3083,2.312,2.3185,2.3216,2.3258,2.3298,2.3378,2.3428,2.3458,2.3506,2.3571,2.3625,2.3637,2.3658,2.3665,2.3677,2.3626,2.3621,2.3615,2.36,2.3669,2.3669,2.3726,2.3727,2.3727]}]]